{"data":{"norad_id":65362,"intl_designator":"2025-190M","name":"STARLINK-34817","alt_names":[],"object_type":"PAYLOAD","status":"ACTIVE","operator":null,"country":"US","launch_date":"2025-08-28","launch_site_code":"AFETR","launch_vehicle":null,"mission":null,"orbit_class":"UNKNOWN","rcs_meters":null,"size_class":null,"mass_kg":null,"dimensions":null,"purposes":["comms"],"wikipedia_slug":null,"has_3d_model":false,"image_url":null,"decayed_at":null,"tle_current":{"epoch":"2026-09-20T11:29:14.883072Z","epoch_age_seconds":119399,"freshness":"FRESH","line1":"1 65362U 25190M   26263.47864448  .00014278  00000+0  43276-3 0  9999","line2":"2 65362  53.1597 339.4706 0001130 116.7987 243.3131 15.34410668 59638","mean_motion":15.34410668,"eccentricity":0.000113,"inclination_deg":53.1597,"raan_deg":339.4706,"arg_perigee_deg":116.7987,"mean_anomaly_deg":243.3131,"bstar":0.00043276,"rev_number":5963,"period_min":93.847105604195,"perigee_km":461.89852148242,"apogee_km":463.44454421084,"semimajor_km":6840.8085328466,"source":"CELESTRAK","updated_at":"2026-09-21T09:00:35.577204Z"}}}